Back to catalog

STARLINK-34830

AliveCommunicationsVLEO
NORAD 65405·PAYLOAD·🇺🇸 United States

Launched Aug 31, 2025 from Cape Canaveral Space Force Station

Loading…

Next Passes (next 24 hours)

TLE

FreshSource: CelesTrak SupGP

Epoch: Sep 14, 2026, 21:04 UTC

1 65405C 25192B   26257.87826389  .00017021  00000+0  54742-3 0  2574
2 65405  53.1590  72.1651 0001161  81.2343 146.2072 15.31688489    13

Track STARLINK-34830 in real time with AllMySat

Download on the App Store